• In Belarus
  • List of Countries
  • For 7 days
  • Water Temperature
  • Satellite Maps
  • Weather Map
  • Weather Widgets
  • user-avatar
    Login

    Hourly Weather Shaki

    Today, 27 June, Thursday

    Time Temperature Precipitation Wind Pressure Humidity
    00:00 +28°C° 0 mm 3 mps 734 mmHg 50%
    01:00 +27°C° 0 mm 2 mps 734 mmHg 51%
    02:00 +27°C° 0 mm 2 mps 734 mmHg 53%
    03:00 +26°C° 0 mm 2 mps 734 mmHg 56%
    04:00 +27°C° 0 mm 2 mps 734 mmHg 55%
    05:00 +27°C° 0 mm 2 mps 734 mmHg 55%
    06:00 +28°C° 0 mm 3 mps 734 mmHg 54%
    07:00 +29°C° 0 mm 3 mps 734 mmHg 51%
    08:00 +30°C° 0 mm 3 mps 734 mmHg 47%
    09:00 +31°C° 0 mm 3 mps 734 mmHg 43%
    10:00 +33°C° 0 mm 3 mps 734 mmHg 40%
    11:00 +34°C° 0 mm 3 mps 733 mmHg 37%
    12:00 +35°C° 0 mm 4 mps 733 mmHg 35%
    13:00 +36°C° 0.1 mm 3 mps 733 mmHg 34%
    14:00 +36°C° 0.1 mm 3 mps 732 mmHg 33%
    15:00 +36°C° 0.1 mm 3 mps 732 mmHg 32%
    16:00 +36°C° 0 mm 3 mps 732 mmHg 34%
    17:00 +35°C° 0 mm 3 mps 732 mmHg 35%
    18:00 +35°C° 0 mm 3 mps 731 mmHg 37%
    19:00 +33°C° 0 mm 3 mps 732 mmHg 39%
    20:00 +31°C° 0 mm 3 mps 732 mmHg 42%
    21:00 +29°C° 0 mm 3 mps 732 mmHg 45%
    22:00 +28°C° 0 mm 3 mps 731 mmHg 47%
    23:00 +27°C° 0 mm 3 mps 731 mmHg 50%

    Tomorrow, 28 June, Friday

    Time Temperature Precipitation Wind Pressure Humidity
    00:00 +26°C° 0 mm 3 mps 731 mmHg 52%
    01:00 +26°C° 0 mm 3 mps 731 mmHg 53%
    02:00 +25°C° 0 mm 2 mps 730 mmHg 54%
    03:00 +25°C° 0 mm 2 mps 730 mmHg 54%
    04:00 +26°C° 0 mm 1 mps 730 mmHg 52%
    05:00 +26°C° 0 mm 1 mps 730 mmHg 50%
    06:00 +27°C° 0 mm 1 mps 730 mmHg 48%
    07:00 +28°C° 0 mm 1 mps 730 mmHg 46%
    08:00 +30°C° 0 mm 2 mps 729 mmHg 43%
    09:00 +31°C° 0 mm 2 mps 729 mmHg 40%
    10:00 +32°C° 0 mm 2 mps 729 mmHg 38%
    11:00 +34°C° 0 mm 2 mps 728 mmHg 35%
    12:00 +35°C° 0 mm 3 mps 728 mmHg 33%
    13:00 +36°C° 0.1 mm 3 mps 727 mmHg 31%
    14:00 +37°C° 0.1 mm 3 mps 727 mmHg 30%
    15:00 +37°C° 0.1 mm 3 mps 726 mmHg 28%
    16:00 +37°C° 0.1 mm 3 mps 726 mmHg 29%
    17:00 +37°C° 0.1 mm 3 mps 726 mmHg 30%
    18:00 +36°C° 0.1 mm 3 mps 725 mmHg 31%
    19:00 +34°C° 0 mm 2 mps 726 mmHg 35%
    20:00 +31°C° 0 mm 2 mps 726 mmHg 39%
    21:00 +29°C° 0 mm 1 mps 727 mmHg 43%
    22:00 +29°C° 0 mm 1 mps 726 mmHg 43%
    23:00 +28°C° 0 mm 1 mps 726 mmHg 43%

    Day after tomorrow, 29 June, Saturday

    Time Temperature Precipitation Wind Pressure Humidity
    00:00 +28°C° 0 mm 1 mps 726 mmHg 44%
    01:00 +28°C° 0 mm 1 mps 726 mmHg 45%
    02:00 +27°C° 0 mm 1 mps 726 mmHg 47%
    03:00 +27°C° 0 mm 1 mps 726 mmHg 48%
    04:00 +27°C° 0 mm 1 mps 726 mmHg 50%
    05:00 +27°C° 0 mm 1 mps 726 mmHg 52%
    06:00 +28°C° 0 mm 1 mps 726 mmHg 55%
    07:00 +29°C° 0.1 mm 1 mps 726 mmHg 51%
    08:00 +30°C° 0.1 mm 2 mps 726 mmHg 47%
    09:00 +32°C° 0.1 mm 2 mps 726 mmHg 43%
    10:00 +32°C° 0.4 mm 2 mps 726 mmHg 42%
    11:00 +34°C° 0.4 mm 2 mps 726 mmHg 41%
    12:00 +35°C° 0.4 mm 3 mps 725 mmHg 40%
    13:00 +35°C° 0.3 mm 3 mps 725 mmHg 39%
    14:00 +36°C° 0.3 mm 3 mps 725 mmHg 39%
    15:00 +36°C° 0.3 mm 3 mps 724 mmHg 38%
    16:00 +35°C° 0.6 mm 4 mps 724 mmHg 43%
    17:00 +33°C° 0.6 mm 5 mps 724 mmHg 48%
    18:00 +32°C° 0.6 mm 6 mps 724 mmHg 53%
    19:00 +29°C° 1.2 mm 5 mps 725 mmHg 61%
    20:00 +27°C° 1.2 mm 3 mps 725 mmHg 68%
    21:00 +26°C° 1.2 mm 2 mps 726 mmHg 76%
    22:00 +25°C° 0.5 mm 2 mps 726 mmHg 78%
    23:00 +25°C° 0.5 mm 3 mps 726 mmHg 81%

    30 June, Sunday

    Time Temperature Precipitation Wind Pressure Humidity
    00:00 +24°C° 0.5 mm 3 mps 726 mmHg 84%
    01:00 +24°C° 0.1 mm 3 mps 727 mmHg 82%
    02:00 +22°C° 0.1 mm 3 mps 727 mmHg 81%
    03:00 +22°C° 0.1 mm 3 mps 727 mmHg 80%
    04:00 +22°C° 0.2 mm 3 mps 727 mmHg 79%
    05:00 +22°C° 0.2 mm 3 mps 727 mmHg 78%
    06:00 +22°C° 0.2 mm 3 mps 727 mmHg 76%
    07:00 +24°C° 0.3 mm 3 mps 728 mmHg 71%
    08:00 +25°C° 0.3 mm 3 mps 728 mmHg 66%
    09:00 +27°C° 0.3 mm 3 mps 728 mmHg 61%
    10:00 +28°C° 0.4 mm 3 mps 728 mmHg 58%
    11:00 +29°C° 0.4 mm 3 mps 728 mmHg 54%
    12:00 +30°C° 0.4 mm 3 mps 728 mmHg 51%
    13:00 +30°C° 1.1 mm 3 mps 728 mmHg 54%
    14:00 +29°C° 1.1 mm 3 mps 728 mmHg 56%
    15:00 +29°C° 1.1 mm 4 mps 728 mmHg 59%
    16:00 +28°C° 1 mm 3 mps 728 mmHg 63%
    17:00 +27°C° 1 mm 2 mps 728 mmHg 68%
    18:00 +26°C° 1 mm 2 mps 728 mmHg 72%
    19:00 +25°C° 1.4 mm 2 mps 729 mmHg 74%
    20:00 +24°C° 1.4 mm 3 mps 730 mmHg 76%
    21:00 +22°C° 1.4 mm 3 mps 730 mmHg 78%
    22:00 +21°C° 1 mm 2 mps 730 mmHg 82%
    23:00 +20°C° 1 mm 2 mps 731 mmHg 85%

    1 July, Monday

    Time Temperature Precipitation Wind Pressure Humidity
    00:00 +20°C° 1 mm 1 mps 731 mmHg 89%
    01:00 +19°C° 1.6 mm 2 mps 731 mmHg 90%
    02:00 +19°C° 1.6 mm 3 mps 731 mmHg 91%
    03:00 +18°C° 1.6 mm 3 mps 731 mmHg 92%
    04:00 +18°C° 0.7 mm 3 mps 731 mmHg 91%
    05:00 +18°C° 0.7 mm 3 mps 731 mmHg 90%
    06:00 +18°C° 0.7 mm 3 mps 731 mmHg 89%
    07:00 +18°C° 1.6 mm 3 mps 731 mmHg 89%
    08:00 +18°C° 1.6 mm 3 mps 732 mmHg 88%
    09:00 +18°C° 1.6 mm 3 mps 732 mmHg 87%
    10:00 +18°C° 2.2 mm 2 mps 732 mmHg 86%
    11:00 +18°C° 2.2 mm 2 mps 732 mmHg 85%
    12:00 +18°C° 2.2 mm 2 mps 733 mmHg 83%
    13:00 +19°C° 0.3 mm 2 mps 733 mmHg 79%
    14:00 +20°C° 0.3 mm 2 mps 733 mmHg 74%
    15:00 +21°C° 0.3 mm 3 mps 732 mmHg 69%
    16:00 +21°C° 0 mm 3 mps 733 mmHg 69%
    17:00 +21°C° 0 mm 3 mps 733 mmHg 69%
    18:00 +21°C° 0 mm 3 mps 733 mmHg 69%
    19:00 +20°C° 0.4 mm 3 mps 733 mmHg 75%
    20:00 +19°C° 0.4 mm 2 mps 734 mmHg 81%
    21:00 +18°C° 0.4 mm 2 mps 734 mmHg 86%
    22:00 +17°C° 0.1 mm 2 mps 734 mmHg 86%
    23:00 +17°C° 0.1 mm 2 mps 735 mmHg 86%

    2 July, Tuesday

    Time Temperature Precipitation Wind Pressure Humidity
    00:00 +17°C° 0.1 mm 2 mps 735 mmHg 86%
    01:00 +16°C° 0 mm 2 mps 735 mmHg 87%
    02:00 +16°C° 0 mm 1 mps 735 mmHg 87%
    03:00 +15°C° 0 mm 1 mps 735 mmHg 88%
    04:00 +16°C° 0 mm 1 mps 735 mmHg 85%
    05:00 +16°C° 0 mm 1 mps 735 mmHg 83%
    06:00 +16°C° 0 mm 0 mps 736 mmHg 80%
    07:00 +20°C° 0 mm 1 mps 736 mmHg 75%
    08:00 +21°C° 0 mm 1 mps 736 mmHg 70%
    09:00 +21°C° 0 mm 2 mps 736 mmHg 65%
    10:00 +23°C° 0 mm 2 mps 735 mmHg 59%
    11:00 +25°C° 0 mm 2 mps 735 mmHg 54%
    12:00 +26°C° 0 mm 2 mps 735 mmHg 49%
    13:00 +27°C° 0 mm 2 mps 735 mmHg 45%
    14:00 +28°C° 0 mm 2 mps 735 mmHg 41%
    15:00 +29°C° 0 mm 2 mps 734 mmHg 38%
    16:00 +28°C° 0 mm 2 mps 734 mmHg 40%
    17:00 +28°C° 0 mm 1 mps 735 mmHg 42%
    18:00 +28°C° 0 mm 1 mps 735 mmHg 44%
    19:00 +26°C° 0 mm 1 mps 735 mmHg 45%
    20:00 +24°C° 0 mm 2 mps 735 mmHg 46%
    21:00 +23°C° 0 mm 2 mps 736 mmHg 47%
    22:00 +23°C° 0 mm 2 mps 735 mmHg 48%
    23:00 +21°C° 0 mm 2 mps 735 mmHg 50%
    Show more